Probability
39 32 26 29 26 13 6 10 10 6 3 0 0 0 0 0 0 0 0 0 0 0 0 0 0 0 0 0 0 0 0 0 0 0 0 0 0 0 0 0 0 0 0
29 32 26 26 16 10 6 6 3 0 0 0 0 0 0 0 0 0 0 0 0 0 0 0 0 0 0 0 0 0 0 0 0 0 0 0 0 0 0 0 0 0 0
26 26 16 19 13 6 6 3 0 0 0 0 0 0 0 0 0 0 0 0 0 0 0 0 0 0 0 0 0 0 0 0 0 0 0 0 0 0 0 0 0 0 0
23 23 13 13 13 3 3 3 0 3 3 0 0 0 0 0 0 0 0 0 0 0 0 0 0 0 0 0 0 0 0 0 0 0 0 0 0 0 0 0 0 0 0
19 19 16 13 13 13 6 10 6 6 3 0 0 0 0 0 0 0 0 0 0 0 0 0 0 0 0 0 0 0 0 0 0 0 0 0 0 0 0 0 0 0 0
16 19 19 13 13 6 13 13 6 6 6 0 0 0 0 0 0 0 0 0 0 0 0 0 0 0 0 0 0 0 0 0 0 0 0 0 0 0 0 0 0 0 0
13 19 16 10 6 6 16 13 10 3 0 0 0 0 0 0 0 0 0 0 0 0 0 0 0 0 0 0 0 0 0 0 0 0 0 0 0 0 0 0 0 0 0
13 16 16 13 6 6 13 10 3 3 3 0 0 0 0 0 0 0 0 0 0 0 0 0 0 0 0 0 0 0 0 0 0 0 0 0 0 0 0 0 0 0 0
6 10 10 13 6 3 10 10 3 3 3 3 3 0 0 0 0 0 0 0 0 0 0 0 0 0 0 0 0 0 0 0 0 0 0 0 0 0 0 0 0 0 0
6 3 6 6 3 3 10 6 3 3 3 3 3 3 0 0 0 0 0 0 0 0 0 0 0 0 0 0 0 0 0 0 0 0 0 0 0 0 0 0 0 0 0
6 3 3 6 0 0 6 3 0 3 3 3 3 0 0 0 0 0 0 0 0 0 0 0 0 0 0 0 0 0 0 0 0 0 0 0 0 0 0 0 0 0 0
3 6 6 0 0 3 3 0 3 3 3 0 0 0 0 0 0 0 0 0 0 0 0 0 0 0 0 0 0 0 0 0 0 0 0 0 0 0 0 0 0 0 0
0 0 3 3 0 0 0 0 3 3 0 0 0 0 0 0 0 0 0 0 0 0 0 0 0 0 0 0 0 0 0 0 0 0 0 0 0 0 0 0 0 0 0
0 0 0 0 0 0 0 0 0 0 0 0 0 0 0 0 0 0 0 0 0 0 0 0 0 0 0 0 0 0 0 0 0 0 0 0 0 0 0 0 0 0 0
0 0 0 0 0 0 0 0 0 0 0 0 0 0 0 0 0 0 0 0 0 0 0 0 0 0 0 0 0 0 0 0 0 0 0 0 0 0 0 0 0 0 0
0 0 0 0 0 0 0 0 0 0 0 0 0 0 0 0 0 0 0 0 0 0 0 0 0 0 0 0 0 0 0 0 0 0 0 0 0 0 0 0 0 0 0
0 0 0 0 0 0 0 0 0 0 0 0 0 0 0 0 0 0 0 0 0 0 0 0 0 0 0 0 0 0 0 0 0 0 0 0 0 0 0 0 0 0 0
0 0 0 0 0 0 0 0 0 0 0 0 0 0 0 0 0 0 0 0 0 0 0 0 0 0 0 0 0 0 0 0 0 0 0 0 0 0 0 0 0 0 0
0 0 0 0 0 0 0 0 0 0 0 0 0 0 0 0 0 0 0 0 0 0 0 0 0 0 0 0 0 0 0 0 0 0 0 0 0 0 0 0 0 0 0
0 0 0 0 0 0 0 0 0 0 0 0 0 0 0 0 0 0 0 0 0 0 0 0 0 0 0 0 0 0 0 0 0 0 0 0 0 0 0 0 0 0 0
0 0 0 0 0 0 0 0 0 0 0 0 0 0 0 0 0 0 0 0 0 0 0 0 0 0 0 0 0 0 0 0 0 0 0 0 0 0 0 0 0 0 0
0 0 0 0 0 0 0 0 0 0 0 0 0 0 0 0 0 0 0 0 0 0 0 0 0 0 0 0 0 0 0 0 0 0 0 0 0 0 0 0 0 0 0
0 0 0 0 0 0 0 0 0 0 0 0 0 0 0 0 0 0 0 0 0 0 0 0 0 0 0 0 0 0 0 0 0 0 0 0 0 0 0 0 0 0 0
0 0 0 0 0 0 0 0 0 0 0 0 0 0 0 0 0 0 0 0 0 0 0 0 0 0 0 0 0 0 0 0 0 0 0 0 0 0 0 0 0 0 0
0 0 0 0 0 0 0 0 0 0 0 0 0 0 0 0 0 0 0 0 0 0 0 0 0 0 0 0 0 0 0 0 0 0 0 0 0 0 0 0 0 0 0
0 0 0 0 0 0 0 0 0 0 0 0 0 0 0 0 0 0 0 0 0 0 0 0 0 0 0 0 0 0 0 0 0 0 0 0 0 0 0 0 0 0 0
Height
5859 5860 5862 5864 5866 5868 5869 5871 5872 5873 5873 5873 5873 5872 5872 5871 5870 5869 5868 5867 5865 5864 5863 5861 5860 5859 5858 5857 5856 5855 5855 5854 5854 5854 5854 5854 5854 5854 5854 5854 5855 5856 5858
5857 5858 5861 5862 5864 5866 5869 5870 5871 5871 5872 5872 5872 5871 5871 5870 5868 5867 5866 5865 5863 5862 5860 5859 5858 5857 5855 5854 5853 5852 5851 5851 5851 5850 5850 5850 5850 5849 5850 5850 5850 5851 5852
5857 5858 5859 5861 5863 5866 5868 5869 5870 5870 5871 5871 5870 5870 5870 5869 5867 5866 5865 5863 5861 5860 5858 5857 5856 5854 5853 5852 5851 5849 5849 5848 5847 5847 5846 5845 5845 5845 5846 5845 5845 5846 5846
5860 5860 5860 5862 5864 5865 5867 5868 5869 5869 5870 5870 5869 5869 5868 5867 5866 5864 5863 5861 5859 5858 5857 5855 5854 5852 5851 5849 5848 5847 5845 5844 5844 5843 5842 5842 5841 5840 5840 5841 5840 5840 5840
5862 5862 5862 5863 5864 5865 5866 5867 5868 5868 5869 5869 5868 5868 5867 5866 5864 5863 5861 5859 5857 5856 5854 5853 5851 5850 5848 5847 5845 5844 5842 5841 5840 5839 5838 5837 5836 5836 5835 5835 5835 5835 5834
5863 5863 5864 5865 5865 5866 5866 5867 5867 5868 5868 5867 5867 5866 5865 5864 5863 5861 5859 5857 5855 5853 5851 5850 5848 5847 5845 5844 5842 5840 5839 5837 5836 5834 5833 5832 5831 5830 5829 5829 5828 5828 5828
5864 5865 5865 5865 5866 5866 5866 5867 5867 5867 5866 5866 5865 5864 5863 5862 5860 5859 5857 5855 5853 5851 5849 5848 5846 5844 5842 5840 5838 5836 5834 5833 5831 5829 5828 5826 5825 5824 5823 5822 5821 5820 5820
5865 5865 5865 5866 5866 5866 5866 5866 5865 5865 5865 5864 5863 5862 5861 5859 5858 5856 5855 5853 5851 5849 5847 5845 5843 5841 5839 5836 5834 5832 5829 5827 5825 5823 5822 5820 5818 5817 5815 5815 5814 5813 5812
5865 5865 5865 5865 5865 5865 5865 5864 5864 5863 5863 5862 5861 5860 5859 5857 5856 5854 5852 5850 5849 5847 5844 5842 5840 5837 5835 5832 5829 5827 5824 5822 5819 5817 5815 5812 5810 5809 5807 5806 5805 5804 5803
5864 5864 5864 5864 5863 5863 5863 5862 5862 5861 5861 5860 5859 5857 5856 5854 5853 5851 5849 5847 5845 5843 5841 5838 5836 5833 5830 5827 5824 5821 5819 5816 5813 5810 5808 5805 5802 5800 5798 5796 5795 5794 5793
5862 5862 5862 5861 5861 5861 5860 5860 5860 5859 5858 5857 5856 5854 5853 5851 5849 5847 5845 5843 5841 5839 5836 5834 5831 5828 5825 5822 5819 5815 5812 5809 5806 5803 5800 5797 5794 5791 5789 5786 5784 5783 5782
5860 5859 5859 5859 5858 5858 5857 5857 5856 5856 5855 5854 5852 5851 5849 5847 5845 5843 5841 5838 5836 5833 5831 5828 5825 5822 5819 5816 5812 5809 5805 5802 5798 5795 5792 5788 5785 5782 5779 5776 5773 5771 5769
5856 5856 5855 5855 5855 5854 5854 5853 5852 5852 5851 5850 5848 5847 5845 5843 5841 5838 5836 5833 5831 5828 5825 5822 5819 5816 5812 5809 5805 5802 5798 5794 5790 5786 5783 5779 5776 5772 5769 5765 5762 5759 5757
5852 5851 5851 5851 5851 5850 5850 5849 5848 5847 5846 5845 5844 5842 5840 5838 5835 5833 5830 5828 5825 5822 5819 5815 5812 5809 5805 5801 5798 5794 5790 5786 5781 5777 5773 5769 5765 5761 5758 5754 5751 5748 5745
5848 5847 5847 5847 5846 5846 5845 5845 5844 5843 5841 5840 5838 5836 5834 5832 5829 5826 5824 5821 5818 5815 5811 5808 5804 5801 5797 5793 5789 5785 5781 5777 5772 5768 5763 5759 5754 5750 5746 5743 5739 5736 5734
5843 5843 5842 5842 5841 5841 5840 5840 5839 5837 5836 5834 5832 5830 5827 5825 5822 5819 5816 5813 5810 5806 5803 5799 5796 5792 5788 5784 5780 5776 5772 5767 5762 5758 5753 5748 5744 5739 5735 5731 5728 5725 5722
5839 5839 5838 5837 5836 5835 5834 5833 5832 5831 5829 5827 5825 5822 5820 5817 5815 5811 5808 5804 5801 5798 5794 5790 5786 5782 5778 5774 5770 5766 5762 5757 5752 5747 5742 5737 5732 5728 5724 5720 5716 5713 5710
5834 5834 5833 5832 5830 5829 5828 5826 5825 5823 5821 5819 5817 5814 5812 5809 5806 5803 5799 5796 5792 5788 5784 5781 5776 5772 5768 5764 5760 5756 5751 5746 5741 5736 5731 5726 5721 5716 5712 5708 5705 5701 5698
5828 5827 5826 5825 5824 5823 5821 5819 5817 5815 5813 5810 5808 5805 5803 5800 5796 5793 5789 5786 5782 5778 5774 5770 5766 5761 5757 5752 5748 5744 5739 5735 5729 5724 5719 5714 5709 5704 5700 5697 5694 5690 5687
5821 5820 5819 5817 5816 5815 5813 5811 5809 5806 5804 5801 5799 5796 5792 5789 5786 5782 5778 5775 5771 5767 5763 5759 5755 5750 5746 5741 5736 5732 5727 5723 5718 5712 5707 5702 5697 5692 5688 5685 5682 5679 5675
5813 5811 5810 5809 5807 5806 5804 5801 5799 5797 5794 5791 5789 5785 5782 5778 5775 5771 5767 5763 5759 5755 5751 5747 5742 5738 5734 5729 5724 5719 5714 5710 5705 5699 5694 5689 5684 5680 5676 5672 5670 5667 5664
5804 5802 5801 5799 5797 5795 5793 5791 5788 5786 5783 5780 5777 5774 5770 5766 5762 5758 5754 5750 5746 5742 5738 5733 5729 5725 5720 5716 5711 5705 5701 5696 5691 5686 5681 5676 5671 5668 5664 5661 5657 5655 5653
5796 5794 5792 5789 5787 5785 5782 5779 5777 5774 5771 5767 5764 5760 5757 5753 5749 5745 5741 5736 5732 5728 5724 5719 5715 5711 5706 5701 5697 5692 5687 5682 5677 5673 5668 5663 5659 5655 5652 5649 5646 5643 5641
5787 5785 5782 5780 5777 5774 5771 5767 5764 5761 5757 5754 5750 5746 5742 5738 5734 5730 5726 5722 5718 5713 5709 5705 5701 5696 5692 5687 5682 5677 5673 5668 5663 5659 5655 5650 5646 5643 5640 5637 5634 5632 5630
5777 5775 5772 5769 5766 5763 5759 5755 5752 5748 5744 5740 5736 5732 5728 5723 5719 5715 5711 5706 5702 5697 5693 5689 5684 5680 5676 5672 5666 5662 5658 5654 5649 5645 5642 5638 5634 5631 5628 5625 5623 5621 5619
5766 5763 5760 5757 5754 5750 5747 5743 5739 5735 5731 5727 5722 5718 5713 5708 5704 5699 5696 5690 5686 5681 5676 5671 5667 5663 5659 5655 5650 5645 5642 5638 5634 5631 5628 5625 5622 5619 5616 5614 5612 5610 5608
Wind_Speed
5 6 6 7 8 7 7 7 4 4 4 3 3 4 4 5 6 6 7 7 8 8 8 9 9 9 10 10 10 10 11 12 13 14 15 16 18 19 20 21 22 22 23
2 5 6 6 6 6 5 5 3 2 2 2 2 2 3 4 5 6 7 7 7 8 8 9 9 9 9 9 9 10 10 11 11 13 14 15 16 17 18 19 21 22 23
3 2 3 6 6 5 5 4 4 2 2 1 1 2 3 4 5 6 7 7 8 8 9 9 10 10 10 10 10 11 11 11 12 13 14 15 15 16 17 18 19 21 22
6 5 5 6 6 5 5 5 4 3 2 1 1 2 3 4 5 6 7 8 9 9 10 10 10 11 11 11 12 12 13 13 13 14 15 16 17 17 18 19 20 21 22
7 7 7 6 6 5 5 5 4 3 1 1 2 2 3 5 6 7 9 10 10 11 11 11 11 12 12 13 13 14 14 15 15 15 16 17 18 19 20 21 21 22 23
7 7 7 7 6 5 5 4 3 2 1 1 2 3 4 6 7 8 9 10 11 12 12 13 13 14 14 15 16 16 17 17 18 18 18 19 19 20 21 22 23 24 25
6 5 5 5 5 4 3 2 2 1 1 2 3 4 6 7 8 9 9 10 11 12 13 14 14 15 16 17 18 18 19 19 20 21 21 22 22 22 23 23 25 25 26
4 3 2 2 3 3 2 2 1 1 2 3 4 6 7 8 9 10 11 11 12 13 13 14 15 16 18 19 20 20 21 22 22 23 23 24 25 25 26 26 26 27 29
2 1 1 2 2 3 3 2 2 3 3 4 5 7 8 9 10 11 12 12 13 14 15 16 17 19 20 21 22 22 23 24 25 25 26 27 27 28 28 29 29 30 30
1 1 2 3 3 4 4 4 4 5 5 6 7 9 10 11 11 12 13 14 15 16 17 18 19 21 22 24 25 25 26 26 27 27 28 29 30 30 31 31 32 32 33
1 1 3 4 4 5 5 5 6 7 8 9 10 11 12 13 14 15 16 17 18 19 20 21 22 24 25 26 27 27 28 29 29 30 31 31 32 32 33 34 35 35 35
3 3 4 5 5 6 7 8 8 9 10 11 12 13 14 15 16 17 18 19 20 21 23 24 25 26 27 28 29 29 30 31 32 32 33 33 33 34 35 35 36 37 37
6 6 6 6 7 8 9 10 11 12 14 15 16 17 17 18 19 20 20 21 23 24 25 26 27 28 29 30 31 31 32 33 33 34 34 35 35 36 36 36 37 37 37
8 8 8 9 10 10 11 12 14 15 17 18 19 20 20 21 22 22 23 24 25 26 27 28 29 31 32 32 33 33 34 34 35 35 36 36 37 37 37 37 37 37 37
10 10 10 11 12 13 13 15 16 17 19 20 22 23 23 24 24 25 26 26 27 29 30 31 32 33 34 34 35 35 35 36 36 37 37 38 38 38 38 37 37 37 36
11 11 12 13 14 15 16 17 18 20 21 23 24 25 26 27 27 28 29 29 30 31 32 33 34 35 35 36 36 36 36 37 37 38 39 39 39 39 38 38 37 37 36
13 12 13 14 15 17 18 20 21 23 24 25 27 28 29 30 30 31 31 32 33 34 34 35 36 37 38 37 37 37 38 38 38 39 39 40 40 39 39 38 37 37 37
15 16 16 17 19 20 21 23 24 26 27 28 30 31 32 32 33 33 34 35 36 37 37 38 39 40 40 39 39 40 39 39 39 40 41 41 41 40 39 38 37 37 37
20 20 21 22 22 23 24 25 27 29 30 31 32 33 34 34 35 36 37 38 39 39 40 40 41 41 42 42 42 42 41 41 41 42 42 42 41 40 39 37 37 37 37
23 24 25 27 27 27 28 29 30 31 32 33 34 35 36 37 38 39 40 41 42 42 42 42 43 43 43 44 44 44 43 43 44 44 44 43 42 40 38 37 36 36 36
27 28 29 30 31 32 33 33 34 34 35 36 36 37 38 39 40 41 43 44 45 45 45 45 44 44 45 45 46 46 46 45 45 45 44 43 42 40 38 37 36 35 35
29 31 33 34 35 36 36 37 38 37 38 38 39 40 40 42 43 44 45 46 47 47 47 47 47 47 47 48 48 48 48 48 47 46 45 43 42 40 38 37 36 36 34
31 33 35 36 37 38 39 39 40 40 40 41 42 43 44 45 46 47 48 48 49 49 49 49 49 49 50 50 50 50 51 50 48 46 45 43 41 40 38 37 36 35 34
32 34 35 36 38 39 40 40 41 43 44 45 45 46 47 48 49 50 51 51 51 52 51 52 52 52 53 53 53 52 52 51 49 46 44 42 40 39 37 36 35 34 33
33 34 36 37 39 40 41 43 44 45 46 47 48 49 50 51 52 52 53 54 54 54 55 55 55 56 55 55 55 54 53 51 49 46 43 41 40 38 37 35 34 33 32
35 36 38 39 40 41 42 44 45 46 47 48 49 51 52 53 54 55 56 56 57 57 58 58 58 58 57 56 56 55 53 50 49 45 42 40 39 37 35 34 32 32 31
Wind_Direction
225 234 233 233 233 242 237 233 251 266 276 290 303 311 312 314 318 324 325 323 322 323 324 324 324 321 316 310 303 297 293 288 282 276 271 267 265 263 261 259 258 256 254
218 228 232 222 213 211 212 223 226 243 260 278 304 316 318 321 327 332 334 332 331 332 333 332 330 327 325 320 313 306 301 297 291 285 280 274 269 267 264 262 260 259 256
60 157 181 175 179 184 194 200 195 193 192 225 310 326 328 327 330 332 333 335 337 337 336 336 335 333 330 326 320 313 307 302 296 292 288 284 278 272 269 267 264 261 259
80 98 129 143 151 160 172 175 171 166 170 226 314 325 327 329 333 336 337 336 335 336 336 336 335 333 329 326 321 315 310 305 300 294 290 287 284 280 276 272 269 265 262
79 97 110 121 126 138 148 150 150 156 175 270 307 320 330 338 343 344 343 340 336 334 334 335 333 330 328 325 321 316 311 306 302 298 293 289 285 282 279 276 272 269 266
77 96 110 116 124 133 137 140 144 161 231 298 328 340 343 344 346 346 343 338 335 335 335 333 330 328 326 324 321 316 311 307 303 300 296 292 288 284 281 278 275 272 269
73 86 104 122 139 147 153 159 168 203 287 320 341 346 346 345 345 344 341 338 338 336 332 328 325 324 323 322 320 317 314 310 306 302 299 295 291 288 284 281 278 275 271
79 87 115 147 164 178 187 190 208 266 309 334 341 342 342 340 339 338 338 336 334 330 326 324 323 321 320 319 318 317 315 312 309 305 301 298 294 290 287 283 280 277 274
106 147 199 208 209 223 235 244 268 290 311 326 333 336 335 332 332 333 332 329 326 324 322 321 320 319 318 318 317 315 313 311 309 306 304 301 298 295 290 286 282 278 275
141 215 235 244 246 250 254 264 279 294 306 316 322 326 326 325 325 324 323 321 319 317 317 318 318 317 317 317 316 314 312 311 308 306 304 302 301 298 294 290 286 282 277
355 268 257 266 269 267 269 276 284 293 300 307 311 314 316 317 317 318 319 318 316 314 314 314 314 314 315 315 314 313 310 309 307 305 303 302 302 299 295 292 289 285 280
323 304 281 278 279 278 280 285 290 294 297 300 303 305 309 311 311 312 313 313 313 312 311 311 312 312 313 313 312 311 309 308 307 305 304 303 302 299 296 294 290 287 283
318 311 304 299 294 291 290 291 293 294 296 298 299 301 303 305 307 307 307 307 306 306 308 309 310 311 312 312 311 310 308 307 306 305 304 303 302 300 298 296 292 289 285
314 313 310 305 301 297 294 294 293 294 295 296 297 298 299 301 302 303 304 304 304 303 304 306 308 308 309 310 310 309 309 308 307 306 305 304 303 302 299 297 294 290 286
311 308 305 301 298 296 293 292 291 292 292 292 293 294 296 298 300 301 301 302 303 303 303 305 306 306 307 308 308 308 308 307 307 307 306 306 304 302 300 297 294 290 287
302 299 296 294 293 292 291 289 289 289 289 289 290 291 293 295 296 298 299 300 301 303 304 303 305 306 307 308 308 308 308 307 307 307 307 306 303 302 300 296 293 290 287
294 293 288 287 290 291 290 290 289 289 289 288 289 290 292 293 295 296 298 298 300 303 304 304 305 305 306 307 308 308 308 307 307 307 307 306 304 302 299 295 292 289 286
291 291 289 287 289 291 291 291 291 290 288 288 289 290 292 293 294 295 296 298 300 301 303 303 304 305 306 306 306 307 307 307 306 307 307 306 304 301 299 295 292 289 285
292 292 291 290 288 289 290 291 292 291 290 289 290 291 292 292 294 295 296 298 299 300 302 303 303 304 304 304 305 305 306 306 307 307 306 305 302 300 298 295 291 288 284
289 288 289 289 288 290 292 291 291 290 289 289 290 290 291 292 293 295 296 297 298 299 300 301 302 302 303 303 304 304 305 306 307 307 305 303 301 299 296 293 290 286 282
288 289 291 292 292 292 292 292 291 290 289 289 289 289 290 291 292 293 294 296 297 298 299 300 300 301 301 301 302 303 304 305 306 305 304 303 300 297 294 291 289 285 282
289 291 292 291 291 291 291 291 290 289 288 288 288 288 289 290 291 292 293 294 295 296 297 298 298 299 299 299 301 301 302 303 304 303 302 300 298 295 292 290 287 284 281
288 289 289 289 289 289 289 289 289 289 288 289 289 289 290 290 291 291 292 293 294 295 295 296 297 298 297 298 299 299 300 301 301 301 299 297 295 292 290 288 285 283 280
288 288 288 288 288 288 288 288 289 289 289 290 290 290 290 291 291 291 292 292 293 293 293 294 295 296 296 296 296 297 298 298 298 297 295 294 293 291 288 286 284 281 280
290 289 288 288 288 288 288 288 289 289 289 290 290 290 290 290 291 291 291 292 292 292 292 293 293 293 293 293 293 294 294 294 294 293 291 291 290 290 288 285 282 280 279
291 291 290 290 289 289 289 289 289 289 289 289 289 289 290 290 290 290 290 290 290 290 290 290 291 290 290 289 289 290 290 290 290 289 288 288 288 287 286 284 281 280 278